This is the latest recevied weather packets stored in our database for station/object EW2905. If no packets are shown the sender has not sent any weather packets the latest 10 day(s).
| Time | Temp. | Humidity | Pressure | Rain* | Wind** | Luminosity | Snow |
|---|---|---|---|---|---|---|---|
| 1777907376 | 25° C | 36% | 1018.9 hPa | 0 mm | - | - | - |
| 1777907197 | 25° C | 36% | 1018.9 hPa | 0 mm | - | - | - |
| 1777907017 | 25.56° C | 34% | 1018.9 hPa | 0 mm | - | - | - |
| 1777906837 | 25° C | 35% | 1018.9 hPa | 0 mm | - | - | - |
| 1777906476 | 24.44° C | 34% | 1018.9 hPa | 0 mm | - | - | - |
| 1777906296 | 24.44° C | 34% | 1018.9 hPa | 0 mm | - | - | - |
| 1777906117 | 24.44° C | 34% | 1018.9 hPa | 0 mm | - | - | - |
| 1777905936 | 23.89° C | 36% | 1018.9 hPa | 0 mm | - | - | - |
| 1777905757 | 23.89° C | 36% | 1018.9 hPa | 0 mm | - | - | - |
| 1777904857 | 22.78° C | 37% | 1018.9 hPa | 0 mm | - | - | - |
| 1777904677 | 22.22° C | 37% | 1018.9 hPa | 0 mm | - | - | - |
| 1777904497 | 22.22° C | 39% | 1018.9 hPa | 0 mm | - | - | - |
| 1777904137 | 22.22° C | 39% | 1018.9 hPa | 0 mm | - | - | - |
| 1777903777 | 22.22° C | 38% | 1018.9 hPa | 0 mm | - | - | - |
| 1777903597 | 22.78° C | 39% | 1018.9 hPa | 0 mm | - | - | - |
| 1777903416 | 23.33° C | 35% | 1018.9 hPa | 0 mm | - | - | - |
| 1777903055 | 23.89° C | 36% | 1018.9 hPa | 0 mm | - | - | - |
| 1777902155 | 23.89° C | 33% | 1018.9 hPa | 0 mm | - | - | - |
| 1777901075 | 23.33° C | 37% | 1018.9 hPa | 0 mm | - | - | - |
| 1777900894 | 22.78° C | 37% | 1018.9 hPa | 0 mm | - | - | - |
| 1777900714 | 22.78° C | 36% | 1018.9 hPa | 0 mm | - | - | - |
| 1777900535 | 22.78° C | 36% | 1018.9 hPa | 0 mm | - | - | - |
| 1777899994 | 22.78° C | 42% | 1018.9 hPa | 0 mm | - | - | - |
| 1777899814 | 22.78° C | 42% | 1018.9 hPa | 0 mm | - | - | - |
| 1777899635 | 22.78° C | 42% | 1018.9 hPa | 0 mm | - | - | - |
* Rain latest hour (hover to see other rain measurements)
** Current wind speed in m/s (hover to see current wind gust speed)